This demonstration page uses our WeatherBlox Daily Observations layout. Learn more.

Left ArrowRight Arrow

41.86663, -103.66717

Hourly Observations for November 26, 2016

Temp ( °F °C ) Dew Point ( °F °C ) Humidity (%) Winds ( mph kmh ) Pressure ( in mb ) Visibility ( mi km ) Precip ( " mm )
12:53 am 00:53 Clear 22 -5.6 16 -8.9 78 78 SW 5 7 30.18 1022 10 16 N/A
1:53 am 01:53 Clear 27 -2.8 17 -8.3 66 66 WNW 8 13 30.17 1022 10 16 N/A
2:53 am 02:53 Clear 26 -3.3 16 -8.9 66 66 N 3 6 30.17 1022 10 16 N/A
3:53 am 03:53 Clear 28 -2.2 17 -8.3 63 63 W 8 13 30.17 1022 10 16 N/A
4:53 am 04:53 Clear 30 -1.1 17 -8.3 58 58 WNW 5 7 30.21 1023 10 16 N/A
5:53 am 05:53 Clear 29 -1.7 17 -8.3 61 61 NNW 7 11 30.22 1023 10 16 N/A
6:53 am 06:53 Clear 32 undefined 18 -7.8 56 56 N 9 15 30.21 1023 10 16 N/A
7:53 am 07:53 Sunny 32 undefined 18 -7.8 56 56 WNW 3 6 30.23 1024 10 16 N/A
8:53 am 08:53 Sunny 41 5 23 -5 49 49 NW 3 6 30.21 1023 10 16 N/A
9:53 am 09:53 Sunny 47 8.3 18 -7.8 31 31 WNW 9 15 30.19 1022 10 16 N/A
10:53 am 10:53 Sunny 51 10.6 18 -7.8 27 27 WNW 10 17 30.16 1021 10 16 N/A
11:53 am 11:53 Sunny 54 12.2 14 -10 20 20 WNW 12 19 30.11 1020 10 16 N/A
12:53 pm 12:53 Sunny 55 12.8 14 -10 20 20 W 8 13 30.08 1019 10 16 N/A
1:53 pm 13:53 Sunny 57 13.9 14 -10 18 18 W 9 15 30.03 1017 10 16 N/A
2:53 pm 14:53 Sunny 58 14.4 12 -11.1 16 16 NW 5 7 30.01 1016 10 16 N/A
3:53 pm 15:53 Sunny 52 11.1 15 -9.4 23 23 N N/A 29.99 1016 10 16 N/A
4:53 pm 16:53 Clear 37 2.8 15 -9.4 41 41 E 6 9 30.01 1016 10 16 N/A
5:53 pm 17:53 Clear 31 -0.6 14 -10 49 49 ESE 7 11 30.02 1017 10 16 N/A
6:53 pm 18:53 Clear 31 -0.6 14 -10 49 49 E 6 9 29.98 1015 10 16 N/A
7:53 pm 19:53 Clear 30 -1.1 13 -10.6 49 49 E 8 13 29.97 1015 10 16 N/A
8:53 pm 20:53 Clear 26 -3.3 15 -9.4 63 63 E 9 15 29.93 1014 10 16 N/A
9:53 pm 21:53 Clear 24 -4.4 14 -10 65 65 E 10 17 29.87 1012 10 16 N/A
10:53 pm 22:53 Clear 28 -2.2 15 -9.4 58 58 E 10 17 29.81 1010 10 16 N/A
11:53 pm 23:53 Clear 30 -1.1 15 -9.4 54 54 E 8 13 29.75 1008 10 16 N/A

Powered by AerisWeather